TAM3803 SBRJ-SBSP

Flight info

Callsign TAM3803
Flight time N/A
Altitude 30000
Route NAXOP UZ45 IBDAL
Aircraft A319/M-SDE3FGHIRWY/LB1

Departure

Time N/A
Airport Santos Dumont Airport (SBRJ)

Arrival

Time 2026-05-03 20:36
Airport Congonhas–Deputado Freitas Nobre Airport (SBSP)
Time Latitude Longitude Altitude Speed Heading
2026-05-03 20:15 -23.87951 -45.68084 22812 ft 279 kts 263°
2026-05-03 20:15 -23.88138 -45.70190 22530 ft 278 kts 263°
2026-05-03 20:15 -23.88327 -45.72286 22250 ft 277 kts 263°
2026-05-03 20:15 -23.88519 -45.74375 21975 ft 276 kts 263°
2026-05-03 20:16 -23.88713 -45.76458 21702 ft 275 kts 263°
2026-05-03 20:16 -23.88909 -45.78534 21426 ft 275 kts 263°
2026-05-03 20:16 -23.89108 -45.80608 21157 ft 274 kts 263°
2026-05-03 20:16 -23.89310 -45.82677 20890 ft 274 kts 263°
2026-05-03 20:17 -23.89515 -45.84741 20623 ft 274 kts 263°
2026-05-03 20:17 -23.89722 -45.86810 20364 ft 273 kts 263°
2026-05-03 20:17 -23.89930 -45.88871 20115 ft 273 kts 263°
2026-05-03 20:17 -23.90143 -45.90939 19855 ft 273 kts 263°
2026-05-03 20:18 -23.90360 -45.93017 19580 ft 278 kts 263°
2026-05-03 20:18 -23.90585 -45.95124 19303 ft 279 kts 263°
2026-05-03 20:18 -23.90812 -45.97231 19031 ft 280 kts 263°
2026-05-03 20:18 -23.91044 -45.99350 18762 ft 281 kts 263°
2026-05-03 20:19 -23.91279 -46.01470 18486 ft 282 kts 263°
2026-05-03 20:19 -23.91518 -46.03597 18180 ft 282 kts 263°
2026-05-03 20:19 -23.91755 -46.05727 17873 ft 283 kts 263°
2026-05-03 20:19 -23.91991 -46.07865 17561 ft 284 kts 263°
2026-05-03 20:20 -23.92224 -46.10007 17260 ft 284 kts 263°
2026-05-03 20:20 -23.92340 -46.12161 16978 ft 285 kts 275°
2026-05-03 20:20 -23.91892 -46.14263 16733 ft 285 kts 284°
2026-05-03 20:20 -23.91332 -46.16417 16487 ft 301 kts 284°
2026-05-03 20:21 -23.90751 -46.18632 16239 ft 305 kts 284°
2026-05-03 20:21 -23.90164 -46.20863 15997 ft 305 kts 284°
2026-05-03 20:21 -23.89576 -46.23090 15757 ft 305 kts 284°
2026-05-03 20:21 -23.88987 -46.25315 15518 ft 305 kts 284°
2026-05-03 20:22 -23.88402 -46.27537 15276 ft 304 kts 284°
2026-05-03 20:22 -23.87818 -46.29757 15047 ft 304 kts 284°
2026-05-03 20:22 -23.87234 -46.31973 14818 ft 303 kts 284°
2026-05-03 20:22 -23.86652 -46.34187 14582 ft 303 kts 284°
2026-05-03 20:23 -23.86070 -46.36397 14358 ft 302 kts 284°
2026-05-03 20:23 -23.85492 -46.38589 14121 ft 300 kts 284°
2026-05-03 20:23 -23.84914 -46.40784 13756 ft 301 kts 284°
2026-05-03 20:23 -23.84336 -46.42986 13392 ft 302 kts 284°
2026-05-03 20:24 -23.83759 -46.45186 13033 ft 302 kts 285°
2026-05-03 20:24 -23.83179 -46.47391 12668 ft 302 kts 285°
2026-05-03 20:24 -23.82596 -46.49600 12309 ft 303 kts 285°
2026-05-03 20:24 -23.82009 -46.51810 11987 ft 303 kts 285°
2026-05-03 20:25 -23.81421 -46.54021 11624 ft 303 kts 285°
2026-05-03 20:25 -23.80832 -46.56235 11261 ft 304 kts 285°
2026-05-03 20:25 -23.80244 -46.58450 10897 ft 304 kts 285°
2026-05-03 20:25 -23.79657 -46.60663 10528 ft 304 kts 285°
2026-05-03 20:26 -23.79067 -46.62881 10188 ft 303 kts 285°
2026-05-03 20:26 -23.78489 -46.65052 10066 ft 294 kts 285°
2026-05-03 20:26 -23.77743 -46.67092 9850 ft 288 kts 299°
2026-05-03 20:26 -23.76514 -46.68804 9444 ft 287 kts 315°
2026-05-03 20:27 -23.74879 -46.70088 8971 ft 289 kts 328°
2026-05-03 20:27 -23.73192 -46.71222 9000 ft 284 kts 327°
2026-05-03 20:27 -23.71522 -46.72371 8976 ft 284 kts 326°
2026-05-03 20:27 -23.69843 -46.73539 8634 ft 286 kts 327°
2026-05-03 20:28 -23.68166 -46.74706 8335 ft 286 kts 327°
2026-05-03 20:28 -23.66493 -46.75872 8045 ft 285 kts 327°
2026-05-03 20:28 -23.64824 -46.77033 7754 ft 285 kts 327°
2026-05-03 20:28 -23.63153 -46.78194 7458 ft 285 kts 328°
2026-05-03 20:29 -23.61485 -46.79351 7135 ft 283 kts 328°
2026-05-03 20:29 -23.59833 -46.80498 6825 ft 280 kts 328°
2026-05-03 20:29 -23.58120 -46.81439 6496 ft 275 kts 342°
2026-05-03 20:29 -23.56295 -46.82035 6136 ft 273 kts 346°
2026-05-03 20:30 -23.54466 -46.82595 5754 ft 273 kts 346°
2026-05-03 20:30 -23.52678 -46.83062 5714 ft 255 kts 356°
2026-05-03 20:30 -23.50997 -46.82918 5684 ft 234 kts 19°
2026-05-03 20:30 -23.49597 -46.82182 5580 ft 217 kts 40°
2026-05-03 20:31 -23.48606 -46.81031 5541 ft 200 kts 63°
2026-05-03 20:31 -23.48190 -46.79639 5553 ft 191 kts 89°
2026-05-03 20:31 -23.48386 -46.78244 5552 ft 186 kts 114°
2026-05-03 20:31 -23.49057 -46.77043 5498 ft 186 kts 124°
2026-05-03 20:32 -23.49771 -46.75875 5379 ft 184 kts 124°
2026-05-03 20:32 -23.50466 -46.74733 5276 ft 176 kts 124°
2026-05-03 20:32 -23.51186 -46.73680 5074 ft 171 kts 135°
2026-05-03 20:32 -23.52137 -46.72925 4866 ft 168 kts 147°
2026-05-03 20:33 -23.53110 -46.72254 4646 ft 162 kts 147°
2026-05-03 20:33 -23.54041 -46.71612 4446 ft 153 kts 147°
2026-05-03 20:33 -23.54912 -46.71009 4250 ft 144 kts 148°
2026-05-03 20:33 -23.55452 -46.70636 4139 ft 135 kts 148°
2026-05-03 20:34 -23.56475 -46.69929 3914 ft 128 kts 148°
2026-05-03 20:34 -23.57219 -46.69415 3812 ft 126 kts 148°
2026-05-03 20:34 -23.57953 -46.68908 3648 ft 125 kts 148°
2026-05-03 20:34 -23.58687 -46.68400 3471 ft 125 kts 148°
2026-05-03 20:35 -23.59419 -46.67895 3311 ft 124 kts 147°
2026-05-03 20:35 -23.60148 -46.67389 3117 ft 124 kts 147°
2026-05-03 20:35 -23.60879 -46.66893 2925 ft 124 kts 147°
2026-05-03 20:35 -23.61598 -46.66387 2766 ft 125 kts 147°
2026-05-03 20:36 -23.62325 -46.65881 2603 ft 116 kts 147°
2026-05-03 20:36 -23.62844 -46.65522 2608 ft 48 kts 148°
2026-05-03 20:36 -23.63002 -46.65415 2610 ft 26 kts 148°
2026-05-03 20:36 -23.63149 -46.65378 2608 ft 11 kts 198°
2026-05-03 20:37 -23.63136 -46.65467 2602 ft 19 kts 326°
2026-05-03 20:37 -23.63053 -46.65512 2603 ft 21 kts 343°
2026-05-03 20:37 -23.62912 -46.65579 2604 ft 24 kts 331°
2026-05-03 20:37 -23.62699 -46.65731 2602 ft 30 kts 329°
2026-05-03 20:38 -23.62578 -46.65815 2602 ft 0 kts 328°
2026-05-03 20:38 -23.62560 -46.65833 2602 ft 4 kts 288°
2026-05-03 20:38 -23.62586 -46.65882 2601 ft 8 kts 237°
2026-05-03 20:38 -23.62595 -46.65897 2601 ft 1 kts 237°
2026-05-03 20:39 -23.62599 -46.65904 2601 ft 2 kts 239°
2026-05-03 20:39 -23.62600 -46.65907 2601 ft 0 kts 238°